Regional Weather Roundup
Issued by NWS

Home | Current Version | Previous Version | Graphics & Text | Print | Product List | Glossary On
Versions: 1 2 3 4 5 6 7 8 9 10 11 12 13 14 15 16 17 18 19 20 21 22 23 24 25 26 27 28 29 30 31 32 33 34 35 36 37 38 39 40 41 42 43 44 45 46 47 48 49 50
000
ASUS43 KLOT 292308
RWRIL

ILLINOIS REGIONAL WEATHER ROUNDUP
NATIONAL WEATHER SERVICE CHICAGO/ROMEOVILLE IL
600 PM CDT FRI APR 29 2016

NOTE: "FAIR" INDICATES FEW OR NO CLOUDS BELOW 12,000 FEET WITH NO
SIGNIFICANT WEATHER AND/OR OBSTRUCTIONS TO VISIBILITY.

* THESE STATIONS ARE NOT UNDER NWS QUALITY CONTROL. THEY ALSO MAY NOT
  REPORT WEATHER SUCH AS PRECIPITATION OR FOG.

ILZ001-002-007-009-015-016-024-300000-
NORTHWEST ILLINOIS

CITY           SKY/WX    TMP DP  RH WIND       PRES   REMARKS
MOLINE         CLOUDY    51  41  68 E10       30.08S
STERLING*      CLOUDY    48  43  81 E10       30.11F
SAVANNA*       CLOUDY    49  40  70 NE8       30.11F
$$

ILZ003-004-008-010-011-017-018-300000-
NORTH CENTRAL ILLINOIS

CITY           SKY/WX    TMP DP  RH WIND       PRES   REMARKS
ROCKFORD       CLOUDY    48  39  71 NE3       30.14R
FREEPORT*      CLOUDY    46  39  76 NE6       30.13S
ROCHELLE*      CLOUDY    47  41  80 E5        30.12S
DE KALB*       CLOUDY    47  40  76 NE5       30.12S
$$

ILZ005-006-012>014-019>023-300000-
NORTHEAST ILLINOIS

CITY           SKY/WX    TMP DP  RH WIND       PRES   REMARKS
CHICAGO-OHARE  PTSUNNY   47  39  74 NE10      30.11R
CHICAGO-MIDWAY CLOUDY    49  39  68 NE8       30.11S
AURORA         CLOUDY    49  40  71 N5        30.11F
LANSING*       CLOUDY    46  40  79 NE9       30.12S HAZE
JOLIET*        CLOUDY    53  42  67 N3        30.10F
WAUKEGAN       MOSUNNY   45  38  76 NE10      30.12S
DUPAGE AIRPORT CLOUDY    49  38  65 NE5       30.10R
KANKAKEE*      CLOUDY    53  42  67 NE8       30.08F
WHEELING       PTSUNNY   45  38  76 NE8       30.13R
MORRIS*        CLOUDY    50  42  72 CALM      30.09S
ROMEOVILLE*    CLOUDY    51  39  64 NE8       30.09F
NORTHERLY ISL    N/A     43  39  86 N9          N/A
NORTHERLY ISL    N/A     43  39  86 N9          N/A
$$

LMZ740>746-300000-
SOUTHERN LAKE MICHIGAN

STATION/POSITION SKY/WX   TEMP    WIND        PRES    VSBY  WAVE
                          AIR SEA DIR/SP/G                  HT/PER
                          (F)     (DEG/KT/KT) (MB)    (MI)  (FT/S)
SOUTHERN BUOY              40 40   10/  8/ 10 1020.7R         1/ 4
HARRISON CRIB              42     360/ 15/ 15   N/A
BURNHAM HARBOR             42     350/  8/ 13   N/A
CALUMET HARBOR             43                 1019.4R
BURNS HARBOR               42      30/  7/ 13 1020.7R
MICHIGAN CITY              42     360/ 14/ 14   N/A
ST. JOSEPH                 42 46                N/A           2/ 3
$$

ILZ025>027-034>036-040-047-049-050-058-095>099-300000-
WEST-CENTRAL ILLINOIS

CITY           SKY/WX    TMP DP  RH WIND       PRES   REMARKS
QUINCY         CLOUDY    55  48  77 NE13      30.00F
GALESBURG*     CLOUDY    50  44  79 NE14      30.06S
MACOMB*        CLOUDY    53  47  79 E9        30.07S
JACKSONVILLE*  CLOUDY    57  50  76 NE13      30.01F
PITTSFIELD*    CLOUDY    57  51  80 NE15      30.00F
$$

ILZ028>032-037-038-041>044-048-051>054-059>061-300000-
CENTRAL ILLINOIS

CITY           SKY/WX    TMP DP  RH WIND       PRES   REMARKS
PONTIAC        CLOUDY    53  48  82 NE8       30.08F
BLOOMINGTON    CLOUDY    55  47  74 NE9       30.06F
DECATUR        CLOUDY    60  50  69 NE8       30.03S
PEORIA         CLOUDY    53  44  71 E10       30.06F
LACON*         CLOUDY    50  42  74 NE5       30.08S
LINCOLN*       PTSUNNY   59  49  69 N6        30.05R
SPRINGFIELD    CLOUDY    59  49  69 NE10      30.03S
TAYLORVILLE    CLOUDY    61  52  72 NE6       30.02S
$$

ILZ033-039-045-046-055>057-062-063-300000-
EAST-CENTRAL ILLINOIS

CITY           SKY/WX    TMP DP  RH WIND       PRES   REMARKS
CHAMPAIGN      CLOUDY    58  48  69 NE9       30.04F
RANTOUL*       CLOUDY    59  48  67 NE9       30.05F
MATTOON        CLOUDY    62  50  64 E3        30.02S
PARIS*         MOSUNNY   62  51  69 CALM      30.04R
$$

ILZ079-100>102-300000-
SOUTHWEST ILLINOIS

CITY           SKY/WX    TMP DP  RH WIND       PRES   REMARKS
BELLEVILLE     PTSUNNY   64  55  72 NE6       29.96F
CAHOKIA*       PTSUNNY   66  53  63 E9        29.95F
SPARTA*        CLOUDY    65  56  71 NE9       29.97S
$$

ILZ064>066-069>071-074>076-080>082-084>086-088>090-092>094-300000-
SOUTH-CENTRAL ILLINOIS

CITY           SKY/WX    TMP DP  RH WIND       PRES   REMARKS
CARBONDALE     CLOUDY    64  54  69 E9        29.96R
CAIRO*         CLOUDY    61  58  90 E8        29.94R
EFFINGHAM*     CLOUDY    64  53  67 NE3       30.02F
MARION         CLOUDY    64  57  77 E8        29.97S
MT. VERNON     CLOUDY    64  52  63 NE7       29.99F
CENTRALIA*     CLOUDY    65  56  72 E8        29.98F
SALEM*         CLOUDY    64  52  64 E5        29.99F
METROPOLIS*    CLOUDY    62  60  94 CALM      29.96R
$$

ILZ067-068-072-073-078-083-087-091-300000-
SOUTHEAST ILLINOIS

CITY           SKY/WX    TMP DP  RH WIND       PRES   REMARKS
LAWRENCEVILLE  CLOUDY    65  52  62 E3        30.02S
FLORA*         CLOUDY    65  54  68 SE6       30.00F
FAIRFIELD*     CLOUDY    64  54  69 E3        29.99F
HARRISBURG*    CLOUDY    65  56  74 E10       29.96F
ROBINSON*      PTSUNNY   63  53  71 CALM      30.03S
CARMI*         CLOUDY    66  55  67 E7        29.98F
$$

ABBREVIATIONS USED IN REMARKS
   TC - TEMPERATURE IN CELSIUS
  WCI - WIND CHILL INDEX
   HX - HEAT INDEX
  VSB - VISIBILITY
$$




USA.gov is the U.S. government's official web portal to all federal, state and local government web resources and services.